K4BLL Weather Reports


Display with metric or nautical units.
time (UTC)temp
F
wind
direction
speed
MPH
gust
MPH
rain 1hr
in
rain 24hr
in
rain mn
in
humidity
%
barometer
mb
20260504201512 79 137 0.0 1.0 0.00 0.00 0.00 29 1014.9
20260504200010 78 298 2.0 5.0 0.00 0.00 0.00 29 1015.1
20260504194517 79 110 1.0 5.0 0.00 0.00 0.00 29 1015.2
20260504193014 79 111 1.0 5.0 0.00 0.00 0.00 31 1015.4
20260504191505 79 96 0.0 5.0 0.00 0.00 0.00 29 1015.8
20260504190002 80 125 0.0 5.0 0.00 0.00 0.00 28 1016.0
20260504184601 79 128 0.0 3.0 0.00 0.00 0.00 30 1016.2
20260504183057 80 150 2.0 7.0 0.00 0.00 0.00 27 1016.5
20260504181558 80 128 0.0 4.0 0.00 0.00 0.00 32 1016.7
20260504180143 80 127 1.0 6.0 0.00 0.00 0.00 31 1016.9
20260504173057 78 159 0.0 1.0 0.00 0.00 0.00 34 1017.1
20260504171542 76 143 0.0 1.0 0.00 0.00 0.00 35 1017.3
20260504120111 44 148 0.0 0.0 0.00 0.00 0.00 94 1018.7
20260504081532 45 158 0.0 0.0 0.00 0.00 0.00 90 1018.2
20260504050141 50 158 0.0 0.0 0.00 0.00 0.00 83 1019.0
20260504044506 50 158 0.0 0.0 0.00 0.00 0.00 82 1019.0
20260504043005 51 158 0.0 0.0 0.00 0.00 0.00 81 1019.1
20260504041503 51 158 0.0 0.0 0.00 0.00 0.00 79 1019.1
20260504040106 51 158 0.0 0.0 0.00 0.00 0.00 78 1019.0
20260504034600 52 158 0.0 0.0 0.00 0.00 0.00 77 1018.9
20260504033059 52 158 0.0 0.0 0.00 0.00 0.00 77 1018.9
20260504031628 53 158 0.0 0.0 0.00 0.00 0.00 75 1018.9
20260504030058 54 158 0.0 0.0 0.00 0.00 0.00 74 1018.8
20260504024601 54 158 0.0 0.0 0.00 0.00 0.00 72 1018.8
20260504023059 55 158 0.0 0.0 0.00 0.00 0.00 71 1018.7
20260504021610 56 158 0.0 0.0 0.00 0.00 0.00 69 1018.6
20260504020105 56 158 0.0 0.0 0.00 0.00 0.00 67 1018.3
20260504014556 57 158 0.0 0.0 0.00 0.00 0.00 64 1018.1
20260504013105 58 158 0.0 0.0 0.00 0.00 0.00 61 1017.8
20260504011557 60 158 0.0 0.0 0.00 0.00 0.00 58 1017.6
20260504010101 61 158 0.0 0.0 0.00 0.00 0.00 55 1017.5
20260504004556 62 158 0.0 0.0 0.00 0.00 0.00 52 1017.3
20260504003054 64 158 0.0 0.0 0.00 0.00 0.00 46 1017.2
20260504001608 66 158 0.0 0.0 0.00 0.00 0.00 41 1017.1
20260504000054 68 158 0.0 0.0 0.00 0.00 0.00 38 1017.1
20260503234551 69 158 0.0 0.0 0.00 0.00 0.00 35 1017.1
20260503233051 69 158 0.0 0.0 0.00 0.00 0.00 36 1017.1
20260503231554 70 158 0.0 1.0 0.00 0.00 0.00 34 1017.2
20260503230050 70 157 0.0 1.0 0.00 0.00 0.00 33 1017.2
20260503224551 70 160 0.0 1.0 0.00 0.00 0.00 33 1017.1
20260503223048 71 160 0.0 1.0 0.00 0.00 0.00 31 1017.0
20260503221546 71 147 0.0 1.0 0.00 0.00 0.00 31 1017.1
20260503220045 71 150 0.0 1.0 0.00 0.00 0.00 33 1017.2
20260503214551 71 153 0.0 1.0 0.00 0.00 0.00 32 1017.3
20260503213106 71 153 0.0 1.0 0.00 0.00 0.00 31 1017.5
20260503211603 72 153 0.0 2.0 0.00 0.00 0.00 30 1017.6
20260503210142 72 155 0.0 2.0 0.00 0.00 0.00 33 1017.7
20260503204557 72 134 0.0 1.0 0.00 0.00 0.00 32 1017.9
20260503203041 72 161 0.0 3.0 0.00 0.00 0.00 35 1018.0